Orbital Elements at Epoch 2459000.5 (2020-May-31.0) TDB
Reference: JPL 23 (heliocentric ecliptic J2000)
Element | Value | Uncertainty (1-sigma) | Units |
e | .04187559438201672 | 6.1947e-08 | |
a | 1.949751443977204 | 6.6541e-09 | au |
q | 1.868104443363463 | 1.2118e-07 | au |
i | 23.3613113000011 | 7.0811e-06 | deg |
node | 57.45192269176303 | 9.961e-06 | deg |
peri | 189.7818975414987 | 5.604e-05 | deg |
M | 252.2473049832392 | 5.612e-05 | deg |
tp | 2459298.141129017741 (2021-Mar-24.64112902) | 0.00015511 | TDB |
period | 994.4141669006013 2.72 | 5.0906e-06 1.394e-08 | d yr |
n | .3620221955626911 | 1.8533e-09 | deg/d |
Q | 2.031398444590945 | 6.9328e-09 | au |
|
| | Orbit Determination Parameters
Additional Information
|